This is the latest recevied weather packets stored in our database for station/object W4MSI. If no packets are shown the sender has not sent any weather packets the latest 10 day(s).
| Time | Temp. | Humidity | Pressure | Rain* | Wind** | Luminosity | Snow |
|---|---|---|---|---|---|---|---|
| 1777988110 | 17.22° C | 71% | 1010.4 hPa | 0 mm | - | 126 W/m² | - |
| 1777987806 | 16.67° C | 72% | 1010.2 hPa | 0 mm | - | 148 W/m² | - |
| 1777987503 | 16.67° C | 71% | 1010.5 hPa | 0 mm | - | 143 W/m² | - |
| 1777987201 | 16.67° C | 72% | 1010.3 hPa | 0 mm | - | 124 W/m² | - |
| 1777986897 | 16.67° C | 72% | 1010.2 hPa | 0 mm | - | 113 W/m² | - |
| 1777986595 | 16.67° C | 72% | 1010.3 hPa | 0 mm | - | 110 W/m² | - |
| 1777986293 | 16.67° C | 73% | 1010.1 hPa | 0 mm | - | 112 W/m² | - |
| 1777985990 | 16.11° C | 74% | 1010.1 hPa | 0 mm | - | 115 W/m² | - |
| 1777985687 | 16.11° C | 73% | 1009.9 hPa | 0 mm | - | 107 W/m² | - |
| 1777985384 | 16.11° C | 73% | 1010 hPa | 0 mm | - | 107 W/m² | - |
| 1777985081 | 16.11° C | 74% | 1010.2 hPa | 0 mm | - | 104 W/m² | - |
| 1777984777 | 16.11° C | 74% | 1009.9 hPa | 0 mm | - | 103 W/m² | - |
| 1777984474 | 15.56° C | 74% | 1009.9 hPa | 0 mm | - | 80 W/m² | - |
| 1777984169 | 15.56° C | 74% | 1010 hPa | 0 mm | - | 78 W/m² | - |
| 1777983867 | 15.56° C | 75% | 1009.9 hPa | 0 mm | - | 74 W/m² | - |
| 1777983563 | 15.56° C | 75% | 1010 hPa | 0 mm | - | 63 W/m² | - |
| 1777983261 | 15° C | 76% | 1010.1 hPa | 0 mm | - | 56 W/m² | - |
| 1777982956 | 15° C | 76% | 1010 hPa | 0 mm | - | 55 W/m² | - |
| 1777982653 | 15° C | 76% | 1010 hPa | 0 mm | - | 55 W/m² | - |
| 1777982352 | 15° C | 76% | 1010.1 hPa | 0 mm | - | 48 W/m² | - |
| 1777982049 | 15° C | 76% | 1010 hPa | 0 mm | - | 44 W/m² | - |
| 1777981747 | 15° C | 77% | 1009.9 hPa | 0 mm | - | 37 W/m² | - |
| 1777981443 | 14.44° C | 76% | 1009.7 hPa | 0 mm | - | 32 W/m² | - |
| 1777981139 | 14.44° C | 77% | 1009.7 hPa | 0 mm | - | 29 W/m² | - |
| 1777980836 | 14.44° C | 76% | 1009.4 hPa | 0 mm | - | 24 W/m² | - |
* Rain latest hour (hover to see other rain measurements)
** Current wind speed in m/s (hover to see current wind gust speed)